Weather in Farxor

Tajikistan     37°29′18″N   69°24′04″E
В апреле 2022 года жителям России запретили посещать сайт meteo.paraplan.net по решению Генеральной прокуратуры. Аудитория сайта уменьшилась в 10 раз. Владельцы сайта не видят смысла в поддержке погодного сервера в таких условиях. Сайт будет закрыт в октябре.
temp.,
°C
wind,
m/s
gust,
m/s
humid.,
%
clouds,
%
prec.,
mm/h
press.,
hPa
HPBL,
m
6 october, thu
thu623:00+18ssw22240 0.0 101921
02:00+15nnw11270 0.0 101911
05:00+14nnw22300 0.0 101913
08:00+17nnw22240 0.0 1021132
11:00+24sw11140 0.0 1019914
14:00+27nw12110 0.0 10162309
17:00+26wnw23110 0.0 1016612
20:00+19sse22160 0.0 101821
7 october, fri
fri723:00+16sw11190 0.0 102014
02:00+13nnw11220 0.0 102010
05:00+12nnw22240 0.0 102011
08:00+16n12200 0.0 1021125
11:00+22ssw01120 0.0 1019712
14:00+26e11100 0.0 10161578
17:00+26sse11100 0.0 101631
20:00+19s22140 0.0 101818
8 october, sat
sat823:00+15nw11170 0.0 102011
02:00+13nnw22200 0.0 102012
05:00+12nnw22220 0.0 102110
08:00+16n11180 0.0 1022104
11:00+23sse11118 0.0 1021708
14:00+27sse22868 0.0 10181776
17:00+26sse2385 0.0 101792
20:00+18s22130 0.0 102019
9 october, sun
sun923:00+15nnw11150 0.0 102111
02:00+13nnw22190 0.0 102111
05:00+12nnw22210 0.0 102111
08:00+16n22160 0.0 1022112
11:00+23nw01100 0.0 1020677
14:00+27se1180 0.0 10161575
17:00+26se2280 0.0 101540
20:00+18s22130 0.0 101817
10 october, mon
mon1023:00+15nw11150 0.0 101910
02:00+13nnw22180 0.0 101911
05:00+12nnw22200 0.0 102010
08:00+16n22150 0.0 1021103
11:00+23nne0190 0.0 1019658
14:00+27e0170 0.0 10151480
17:00+26se1280 0.0 101316
20:00+18ssw22120 0.0 101513